www.pogodaiklimat.ru

Погода и климат >> Архив погоды >> Россия >> Крым >> Симферополь


АРХИВ ПОГОДЫ в Симферополе

Время (UTC), дата Ветер
(напр.,м/с)
 
Видим.   Явления Облачность Т
(С)
Тd
(С)
f
(%)
Тe
(С)
Тes
(С)
Комфортность P
(гПа)
Po
(гПа)
Тmin
(С)
Tmax
(С)
R
(мм)
R24
(мм)
S
(см)
09 12.11 В 6
{11}
10 км 10/10 540 м
[Sc]
+5.3 +3.6 89 0 0 прохладно 1031.6 1009.0
12 12.11 В 7-10
{10}
10 км 10/10 800 м
[Sc]
+5.4 +2.4 81 0 0 холодно 1031.7 1009.1
15 12.11 В 7
{11}
10 км 10/8 1140 м
[Sc Ci fib]
+3.7 +1.7 87 -2 -2 холодно 1032.6 1009.9 0.3
18 12.11 СВ 6
{11}
10 км 10/10 1320 м
[Sc]
+1.9 -0.2 86 -4 -4 холодно 1034.1 1011.2 +5.7
21 12.11 СВ 6
{10}
10 км 10/10 1110 м
[Sc]
-0.1 -1.7 89 -7 -7 очень
холодно
1034.3 1011.2
00 13.11 СВ 8-12
{12}
10 км 10/10 180 м
[St]
-0.2 -1.0 94 -8 -8 очень
холодно
1034.5 1011.4
03 13.11 СВ 7-10
{12}
10 км 10/10 180 м
[St]
-1.0 -2.0 93 -9 -9 очень
холодно
1034.5 1011.3 -1.0
06 13.11 СВ 6
{10}
10 км 10/10 240 м
[St]
-1.4 -2.8 90 -8 -8 очень
холодно
1035.0 1011.8 -1.6
09 13.11 СВ 6 10 км снежные зёрна 10/10 270 м
[St]
-0.7 -2.4 88 -8 -8 очень
холодно
1034.8 1011.7
12 13.11 СВ 6 10 км {снег} 10/10 420 м
[St]
+0.2 -2.8 80 -6 -6 очень
холодно
1033.4 1010.4
15 13.11 СВ 7
{10}
10 км 10/10 300 м
[St]
-1.4 -3.3 87 -9 -9 очень
холодно
1033.6 1010.4 0.0
18 13.11 СВ 5
{10}
10 км 10/10 570 м
[Sc]
-1.2 -4.7 77 -7 -7 очень
холодно
1032.6 1009.5 +0.8 0.0
21 13.11 СВ 4 10 км 10/10 360 м
[St]
-1.4 -3.7 84 -7 -7 очень
холодно
1031.4 1008.3
00 14.11 СВ 6 10 км в посл. час зёрна {снег} 10/10 180 м
[St]
-2.0 -2.7 95 -9 -9 очень
холодно
1029.7 1006.6
03 14.11 СВ 6 2500 м снежные зёрна 10/10 90 м
[St]
-1.6 -1.9 98 -9 -9 очень
холодно
1028.5 1005.4 -2.2 0.3
06 14.11 СВ 4 1900 м в посл. час зёрна {снег} 10/10 150 м
[St]
-1.2 -1.5 98 -7 -7 очень
холодно
1027.7 1004.7 -2.2 0.6 <0.5
09 14.11 В 3 4500 м слабая морось [диам. гололёда 2 мм] 10/10 120 м
[St]
+0.7 +0.6 99 -4 -4 очень
холодно
1026.2 1003.4
12 14.11 СВ 4 5000 м слабая морось 10/10 150 м
[St]
+3.6 +3.3 98 -1 -1 холодно 1024.4 1001.9
15 14.11 СВ 5 900 м туман {морось} ?/? +2.3 +2.2 99 -3 -3 холодно 1023.9 1001.3 0.8
18 14.11 СВ 5 300 м туман {морось} ?/? +2.3 +2.3 100 -3 -3 прохладно 1023.4 1000.8 +3.7 0.5
21 14.11 СВ 3 200 м туман ?/? +2.5 +2.5 100 -2 -2 прохладно 1022.0 999.4
00 15.11 СВ 4 400 м туман ?/? +2.6 +2.6 100 -3 -3 прохладно 1021.1 998.5
03 15.11 СВ 5 200 м туман ?/? +2.6 +2.6 100 -3 -3 прохладно 1020.1 997.6 +2.3 0.3
06 15.11 СВ 5 400 м туман ?/? +2.8 +2.8 100 -3 -3 прохладно 1020.5 998.0 +2.3 0.3
09 15.11 СВ 4 6000 м слабый дождь {туман} 10/8 360 м
[Frnb As op]
+4.4 +4.4 100 -0 -0 прохладно 1020.1 997.7
12 15.11 СВ 7 10 км {дождь, туман} 10/10 660 м
[Sc]
+4.8 +4.1 95 -1 -1 холодно 1019.7 997.4
15 15.11 СВ 7
{10}
10 км слабая морось 10/10 180 м
[St]
+3.4 +3.0 97 -3 -3 холодно 1020.7 998.2 1
18 15.11 СВ 6 6000 м слабая морось 10/10 180 м
[St]
+3.0 +2.7 98 -3 -3 прохладно 1020.7 998.2 +5.6 1
21 15.11 СВ 7
{11}
10 км {морось} 10/10 150 м
[St]
+2.2 +1.8 97 -4 -4 прохладно 1021.0 998.4
00 16.11 СВ 7
{11}
10 км слабая морось {ливн. осадки} 10/10 150 м
[St]
+1.9 +1.6 98 -5 -5 холодно 1021.0 998.4
03 16.11 СВ 6
{10}
300 м туман {морось} ?/? +1.0 +1.0 100 -6 -6 холодно 1020.9 998.2 +0.8 1
06 16.11 В 6
{10}
10 км слабая морось {туман} 10/10 330 м
[St]
+3.1 +2.8 98 -3 -3 прохладно 1021.4 998.9 +0.8 1
09 16.11 СВ 8-11
{11}
10 км в посл. час морось 10/9 400 м
[St Ac und]
+4.9 +3.7 92 -1 -1 прохладно 1022.2 999.8
12 16.11 СВ 7-10
{11}
10 км слабая морось 10/10 270 м
[St]
+4.3 +3.7 96 -2 -2 очень
холодно
1022.6 1000.2
15 16.11 СВ 7-10
{11}
10 км слабый дождь {морось} 10/8 800 м
[Frnb As op]
+3.9 +3.3 96 -2 -2 холодно 1023.3 1000.8 0.6
18 16.11 В 9-12
{13}
10 км {дождь, морось} 10/10 1380 м
[Sc]
+3.0 +2.3 95 -4 -4 холодно 1024.8 1002.2 +5.3 0.4
21 16.11 В 10-12
{14}
5000 м дымка 10/10 150 м
[St]
+2.5 +2.2 98 -5 -5 холодно 1025.8 1003.1
00 17.11 В 10-13
{14}
10 км в посл. час морось 10/10 150 м
[St]
+2.3 +1.7 96 -5 -5 холодно 1026.8 1004.1
03 17.11 В 9-12
{13}
1900 м слабая морось 10/10 90 м
[St]
+1.9 +1.8 99 -6 -6 холодно 1027.6 1004.8 +1.9 0.1
06 17.11 СВ 7-10
{12}
10 км {морось} 10/10 180 м
[St]
+2.0 +1.6 97 -5 -5 холодно 1028.9 1006.1 +1.8 0.0
09 17.11 В 8-12
{12}
10 км 10/10 240 м
[St]
+2.8 +1.6 92 -4 -4 холодно 1029.2 1006.5
12 17.11 СВ 8-10
{12}
900 м туман ?/? +2.0 +1.9 99 -5 -5 очень
холодно
1029.5 1006.7
15 17.11 СВ 8-11
{11}
600 м туман ?/? +1.5 +1.4 99 -6 -6 очень
холодно
1030.0 1007.2 0.0
18 17.11 В 8-10
{11}
10 км {туман} 10/10 1380 м
[Sc]
+2.1 +1.7 97 -5 -5 холодно 1030.0 1007.2 +3.1
21 17.11 СВ 7
{11}
600 м туман ?/? +0.8 +0.8 100 -6 -6 холодно 1029.7 1006.8
00 18.11 В 8
{11}
500 м туман ?/? +1.2 +1.2 100 -6 -6 холодно 1028.8 1006.0
03 18.11 СВ 6 3700 м дымка {туман} 10/10 1320 м
[Sc]
+1.9 +1.8 99 -4 -4 прохладно 1027.8 1005.0 +0.6
06 18.11 СВ 7 1900 м в посл. час туман 10/10 120 м
[St]
+2.1 +1.8 98 -5 -5 холодно 1027.4 1004.7 +0.6
09 18.11 СВ 7
{10}
10 км 10/10 1410 м
[Sc]
+4.3 +3.1 92 -2 -2 холодно 1026.1 1003.6
12 18.11 СВ 6 10 км в посл. час ливневой дождь 10/6 960 м
[Sc Ac und]
+5.8 +4.3 90 +1 +1 прохладно 1024.5 1002.1
15 18.11 СВ 5 10 км 10/10 930 м
[Sc]
+4.3 +2.6 89 -1 -1 прохладно 1024.0 1001.5 0.3
18 18.11 СВ 5 10 км 10/10 1500 м
[Sc]
+3.3 +2.7 96 -2 -2 прохладно 1023.4 1000.9 +6.7 0.3
21 18.11 СВ 5 10 км 10/10 1500 м
[Sc]
+4.3 +3.3 93 -1 -1 по сезону 1022.2 999.8
00 19.11 В 5 10 км 3/0
[Ci sp]
+2.8 +1.8 93 -3 -3 прохладно 1020.8 998.3
03 19.11 СВ 4 10 км 10/0
[Ac trans Ci fib]
+2.8 +1.3 90 -2 -2 по сезону 1019.7 997.2 +2.1
06 19.11 В 6 10 км 10/0
[Ac und]
+5.3 +2.5 82 0 0 по сезону 1018.8 996.5 +2.1

 

Местоположение метеостанции Симферополь (Крым, Россия): широта 45.03 долгота 33.97 высота над уровнем моря 181 м.

В архиве по умолчанию представлена погода в Симферополе за последнюю неделю. Архивные данные за месяц целиком и за предыдущие месяцы, начиная с января 2011 года, Вы можете получить, выбрав интересующий диапазон дат из раскрывающегося списка и нажав кнопку "Ввод!".


*Определитесь, кто Вы:
робот инопланетянин человек

Внимание! Время в таблицах - всемирное. Для получения местного времени необходимо прибавить поправку, которая в Симферополе равна 3 ч.

Смотрите также архив погоды в соседних городах и на ближайших метеорологических станциях:

Погода в Симферополе город (Крым, Россия) (15 км)
Погода в Почтовом (Крым, Россия) (22 км)
Погода в Ангарском Перевале (Крым, Россия) (43 км)
Погода в Белогорске (Крым, Россия) (50 км)
Погода в Евпатории (Крым, Россия) (50 км)
Погода в Алуште (Крым, Россия) (52 км)
Погода в Севастополе (город Севастополь, Россия) (57 км)
Погода в Клепинино (Крым, Россия) (58 км)
Погода в Никитском саду (Крым, Россия) (61 км)
Погода в Ай-Петри (Крым, Россия) (63 км)

Пояснения к столбцам:

Ветер - указаны скорость ветра в м/с - средняя за 10 мин, порывы в срок и между сроками (в фигурных скобках) и направление, откуда дует ветер: С - северный, СВ - северо-восточный, В - восточный, ЮВ - юго-восточный, Ю - южный, ЮЗ - юго-западный, З - западный, СЗ - северо-западный.
Видимость - горизонтальная дальность видимости в метрах или километрах. При видимости от 1 до 10 км при отсутствии осадков обычно наблюдается дымка, при ухудшении видимости до 1 км и менее - туман. В сухую погоду видимость может ухудшаться дымом, пылью или мглою.
Явления - указаны атмосферные явления, наблюдавшиеся в срок или в последний час перед сроком; фигурными скобками обозначены явления, наблюдавшиеся между сроками (за 1-3 часа до срока); квадратными скобками обозначены град или гололедные отложения с указанием их диаметра в мм.
Облачность - указаны через наклонную черту общая и нижняя облачность в баллах и высота нижней границы облаков в метрах; квадратными скобками обозначены формы облаков: Ci - перистые, Cs - перисто-слоистые, Cc - перисто-кучевые, Ac - высококучевые, As - высокослоистые, Sc - слоисто-кучевые, Ns - слоисто-дождевые, Cu - кучевые, Cb - кучево-дождевые. Подробнее классификацию облаков см. в Атласе облаков (PDF).
T - Температура воздуха - температура, измеренная на высоте 2 м над землей.
Td - Температура точки росы - температура, при понижении до которой содержащийся в воздухе водяной пар достигнет насыщения.
f - Относительная влажность воздуха - влажноcть воздуха, измеренная на высоте 2 м над землей.
Te - Эффективная температура - температура, которую ощущает одетый по сезону человек в тени. Характеристика душности погоды. При расчете учитывается влияние влажности воздуха и скорости ветра на теплоощущения человека.
Tes - Эффективная температура на солнце - температура, которую ощущает человек, с поправкой на солнечный нагрев. Характеристика знойности погоды. Зависит от высоты солнца над горизонтом, облачности и скорости ветра. Ночью, в пасмурную погоду, а также при ветре 12 м/с и более поправка равна нулю.
P - Атмосферное давление - приведенное к уровню моря атмосферное давление.
Po - Атмосферное давление - измеренное на уровне метеостанции атмосферное давление.
Tmin - Минимальная температура - минимум температуры воздуха на высоте 2 м над землей.
Tmax - Максимальная температура - максимум температуры воздуха на высоте 2 м над землей.
R - Количество осадков - Количество выпавших осадков за период времени, мм. При наведении курсора мыши на число - период времени, за который выпало указанное количество осадков.
R24 - Количество осадков - Количество выпавших осадков за 24 часа, мм.
S - Снежный покров - Высота снежного покрова, см. При наведении курсора мыши на число - состояние снежного покрова и степень покрытия местности в баллах.